When you browse on this site, cookies collect data to enhance your experience and personalize the content and advertising you see.
Visit our Privacy Policy to learn more. By continuing to use the site, you agree to this use of cookies and data.
  • In Romania
  • List of Countries
  • For 7 days
  • Water Temperature
  • Weather Map
  • Weather Widgets
  • user-avatar
    Login

    Hourly Weather Maripasoula

    Today, 21 August, Wednesday

    Time Temperature Precipitation Wind Pressure Humidity
    00:00 +24°C° 0 mm 1 mps 748 mmHg 97%
    01:00 +24°C° 0 mm 1 mps 748 mmHg 98%
    02:00 +21°C° 0 mm 0 mps 748 mmHg 99%
    03:00 +21°C° 0 mm 0 mps 748 mmHg 99%
    04:00 +21°C° 0 mm 0 mps 748 mmHg 99%
    05:00 +21°C° 0 mm 0 mps 748 mmHg 99%
    06:00 +22°C° 0 mm 0 mps 749 mmHg 93%
    07:00 +26°C° 0 mm 1 mps 749 mmHg 87%
    08:00 +27°C° 0 mm 1 mps 750 mmHg 81%
    09:00 +29°C° 0 mm 1 mps 750 mmHg 71%
    10:00 +31°C° 0 mm 2 mps 749 mmHg 61%
    11:00 +34°C° 0 mm 2 mps 749 mmHg 52%
    12:00 +35°C° 0 mm 2 mps 748 mmHg 47%
    13:00 +36°C° 0 mm 2 mps 748 mmHg 43%
    14:00 +37°C° 0 mm 2 mps 747 mmHg 39%
    15:00 +35°C° 0 mm 1 mps 747 mmHg 45%
    16:00 +33°C° 0 mm 1 mps 746 mmHg 51%
    17:00 +32°C° 0 mm 1 mps 746 mmHg 56%
    18:00 +31°C° 0 mm 1 mps 747 mmHg 61%
    19:00 +29°C° 0 mm 1 mps 747 mmHg 65%
    20:00 +27°C° 0 mm 1 mps 748 mmHg 70%
    21:00 +26°C° 0 mm 1 mps 748 mmHg 74%
    22:00 +26°C° 0 mm 1 mps 748 mmHg 79%
    23:00 +25°C° 0 mm 1 mps 748 mmHg 83%

    Tomorrow, 22 August, Thursday

    Time Temperature Precipitation Wind Pressure Humidity
    00:00 +25°C° 0 mm 1 mps 748 mmHg 88%
    01:00 +24°C° 0 mm 1 mps 748 mmHg 92%
    02:00 +24°C° 0 mm 1 mps 748 mmHg 96%
    03:00 +23°C° 0 mm 1 mps 748 mmHg 97%
    04:00 +21°C° 0 mm 0 mps 748 mmHg 98%
    05:00 +21°C° 0 mm 0 mps 748 mmHg 99%
    06:00 +24°C° 0 mm 1 mps 749 mmHg 90%
    07:00 +26°C° 0 mm 1 mps 749 mmHg 81%
    08:00 +28°C° 0 mm 1 mps 750 mmHg 72%
    09:00 +30°C° 0 mm 1 mps 749 mmHg 62%
    10:00 +32°C° 0 mm 1 mps 749 mmHg 53%
    11:00 +35°C° 0 mm 2 mps 749 mmHg 43%
    12:00 +36°C° 0 mm 2 mps 748 mmHg 40%
    13:00 +37°C° 0 mm 2 mps 748 mmHg 37%
    14:00 +37°C° 0 mm 2 mps 747 mmHg 34%
    15:00 +35°C° 0 mm 1 mps 747 mmHg 40%
    16:00 +34°C° 0 mm 1 mps 746 mmHg 47%
    17:00 +32°C° 0 mm 1 mps 746 mmHg 53%
    18:00 +31°C° 0 mm 1 mps 747 mmHg 58%
    19:00 +29°C° 0 mm 1 mps 747 mmHg 63%
    20:00 +27°C° 0 mm 1 mps 748 mmHg 68%
    21:00 +26°C° 0 mm 1 mps 748 mmHg 72%
    22:00 +26°C° 0 mm 1 mps 748 mmHg 76%
    23:00 +25°C° 0 mm 1 mps 748 mmHg 81%

    Day after tomorrow, 23 August, Friday

    Time Temperature Precipitation Wind Pressure Humidity
    00:00 +24°C° 0 mm 1 mps 748 mmHg 85%
    01:00 +24°C° 0 mm 1 mps 748 mmHg 90%
    02:00 +23°C° 0 mm 1 mps 747 mmHg 94%
    03:00 +21°C° 0 mm 0 mps 748 mmHg 96%
    04:00 +20°C° 0 mm 0 mps 748 mmHg 97%
    05:00 +20°C° 0 mm 0 mps 748 mmHg 99%
    06:00 +24°C° 0 mm 1 mps 749 mmHg 90%
    07:00 +26°C° 0 mm 1 mps 749 mmHg 80%
    08:00 +28°C° 0 mm 1 mps 750 mmHg 71%
    09:00 +31°C° 0 mm 1 mps 749 mmHg 61%
    10:00 +33°C° 0 mm 1 mps 749 mmHg 50%
    11:00 +36°C° 0 mm 1 mps 749 mmHg 39%
    12:00 +37°C° 0 mm 1 mps 748 mmHg 36%
    13:00 +39°C° 0 mm 1 mps 747 mmHg 33%
    14:00 +39°C° 0 mm 1 mps 746 mmHg 30%
    15:00 +36°C° 0 mm 1 mps 746 mmHg 36%
    16:00 +34°C° 0 mm 1 mps 746 mmHg 43%
    17:00 +32°C° 0 mm 1 mps 746 mmHg 49%
    18:00 +31°C° 0 mm 1 mps 746 mmHg 53%
    19:00 +29°C° 0 mm 1 mps 747 mmHg 56%
    20:00 +28°C° 0 mm 1 mps 747 mmHg 60%
    21:00 +27°C° 0.5 mm 1 mps 747 mmHg 72%
    22:00 +25°C° 0.5 mm 1 mps 748 mmHg 83%
    23:00 +24°C° 0.5 mm 1 mps 748 mmHg 95%

    24 August, Saturday

    Time Temperature Precipitation Wind Pressure Humidity
    00:00 +24°C° 0.4 mm 1 mps 748 mmHg 96%
    01:00 +24°C° 0.4 mm 1 mps 747 mmHg 97%
    02:00 +21°C° 0.4 mm 0 mps 747 mmHg 98%
    03:00 +21°C° 0.2 mm 0 mps 747 mmHg 99%
    04:00 +21°C° 0.2 mm 0 mps 748 mmHg 99%
    05:00 +21°C° 0.2 mm 0 mps 748 mmHg 99%
    06:00 +22°C° 0 mm 0 mps 748 mmHg 96%
    07:00 +25°C° 0 mm 1 mps 749 mmHg 92%
    08:00 +26°C° 0 mm 1 mps 749 mmHg 89%
    09:00 +29°C° 0 mm 1 mps 749 mmHg 75%
    10:00 +32°C° 0 mm 1 mps 749 mmHg 62%
    11:00 +34°C° 0 mm 1 mps 749 mmHg 48%
    12:00 +34°C° 0 mm 1 mps 748 mmHg 47%
    13:00 +35°C° 0 mm 1 mps 747 mmHg 47%
    14:00 +35°C° 0 mm 1 mps 746 mmHg 46%
    15:00 +32°C° 0 mm 0 mps 746 mmHg 52%
    16:00 +30°C° 0 mm 0 mps 746 mmHg 57%
    17:00 +29°C° 0 mm 0 mps 745 mmHg 63%
    18:00 +29°C° 0.4 mm 1 mps 746 mmHg 71%
    19:00 +28°C° 0.4 mm 1 mps 746 mmHg 80%
    20:00 +26°C° 0.4 mm 2 mps 747 mmHg 88%
    21:00 +25°C° 0.5 mm 1 mps 747 mmHg 91%
    22:00 +24°C° 0.5 mm 1 mps 747 mmHg 95%
    23:00 +24°C° 0.5 mm 1 mps 748 mmHg 98%

    25 August, Sunday

    Time Temperature Precipitation Wind Pressure Humidity
    00:00 +24°C° 1 mm 1 mps 747 mmHg 98%
    01:00 +24°C° 1 mm 1 mps 747 mmHg 98%
    02:00 +23°C° 1 mm 1 mps 747 mmHg 99%
    03:00 +21°C° 0.6 mm 0 mps 747 mmHg 99%
    04:00 +21°C° 0.6 mm 0 mps 747 mmHg 99%
    05:00 +21°C° 0.6 mm 0 mps 747 mmHg 99%
    06:00 +22°C° 0.1 mm 0 mps 748 mmHg 96%
    07:00 +23°C° 0.1 mm 0 mps 748 mmHg 92%
    08:00 +27°C° 0.1 mm 1 mps 749 mmHg 89%
    09:00 +29°C° 0.5 mm 1 mps 749 mmHg 77%
    10:00 +31°C° 0.5 mm 1 mps 748 mmHg 65%
    11:00 +34°C° 0.5 mm 1 mps 748 mmHg 53%
    12:00 +34°C° 0.1 mm 1 mps 747 mmHg 50%
    13:00 +35°C° 0.1 mm 1 mps 747 mmHg 47%
    14:00 +35°C° 0.1 mm 1 mps 746 mmHg 44%
    15:00 +32°C° 0 mm 0 mps 745 mmHg 50%
    16:00 +31°C° 0 mm 0 mps 745 mmHg 56%
    17:00 +30°C° 0 mm 0 mps 745 mmHg 62%
    18:00 +28°C° 0.1 mm 0 mps 746 mmHg 67%
    19:00 +26°C° 0.1 mm 0 mps 746 mmHg 71%
    20:00 +25°C° 0.1 mm 0 mps 747 mmHg 76%
    21:00 +26°C° 0.6 mm 1 mps 747 mmHg 82%
    22:00 +25°C° 0.6 mm 1 mps 747 mmHg 88%
    23:00 +24°C° 0.6 mm 1 mps 747 mmHg 94%

    26 August, Monday

    Time Temperature Precipitation Wind Pressure Humidity
    00:00 +22°C° 0 mm 0 mps 747 mmHg 95%
    01:00 +22°C° 0 mm 0 mps 747 mmHg 97%
    02:00 +21°C° 0 mm 0 mps 747 mmHg 98%
    03:00 +21°C° 0 mm 0 mps 747 mmHg 99%
    04:00 +21°C° 0 mm 0 mps 747 mmHg 99%
    05:00 +21°C° 0 mm 0 mps 747 mmHg 99%
    06:00 +24°C° 0 mm 1 mps 748 mmHg 93%
    07:00 +26°C° 0 mm 1 mps 748 mmHg 88%
    08:00 +27°C° 0 mm 2 mps 748 mmHg 82%
    09:00 +30°C° 0 mm 2 mps 748 mmHg 69%
    10:00 +32°C° 0 mm 2 mps 748 mmHg 56%
    11:00 +35°C° 0 mm 2 mps 748 mmHg 43%
    12:00 +36°C° 0 mm 2 mps 747 mmHg 40%
    13:00 +37°C° 0 mm 2 mps 746 mmHg 37%
    14:00 +38°C° 0 mm 2 mps 745 mmHg 34%
    15:00 +35°C° 0 mm 1 mps 745 mmHg 40%
    16:00 +34°C° 0 mm 1 mps 745 mmHg 46%
    17:00 +33°C° 0 mm 1 mps 744 mmHg 53%
    18:00 +31°C° 0 mm 1 mps 745 mmHg 57%
    19:00 +29°C° 0 mm 1 mps 746 mmHg 61%
    20:00 +28°C° 0 mm 1 mps 746 mmHg 66%
    21:00 +27°C° 0 mm 1 mps 747 mmHg 70%
    22:00 +27°C° 0 mm 1 mps 747 mmHg 74%
    23:00 +26°C° 0 mm 1 mps 747 mmHg 78%
    Show more